www.pogodaiklimat.ru

Погода и климат >> Архив погоды >> Россия >> Красноярский край >> Кемчуг


ПОГОДА в Кемчуге

  • Прогноз погоды в Кемчуге
  • Монитор погоды в Кемчуге

АРХИВ ПОГОДЫ в Кемчуге

Время (UTC), дата Ветер
(напр.,м/с)
 
Видим.   Явления Облачность Т
(С)
Тd
(С)
f
(%)
Тe
(С)
Тes
(С)
Комфортность P
(гПа)
Po
(гПа)
Тmin
(С)
Tmax
(С)
R
(мм)
R24
(мм)
S
(см)
09 12.05 СЗ 5
{18}
20 км 8/5 600 м
[Cb cap Ci sp]
+4.0 -7.0 45 -0 +2 1012.4 971.9
12 12.05 СЗ 5
{11}
20 км 8/5 600 м
[Cb cap Ci sp]
+4.1 -6.4 46 -0 0 1013.5 973.0 +6.7 5
15 12.05 З 1 50 км 3/3 600 м
[Cb cap]
+0.2 -5.5 65 -1 -1 1015.4 974.4
18 12.05 Ю 1 50 км 4/4 600 м
[Cb cap]
-2.2 -4.6 84 -4 -4 1016.1 974.6
21 12.05 штиль 0 50 км 9/9 600 м
[Cb cap]
-3.6 -4.6 93 -5 -5 1015.5 973.9
00 13.05 СВ 1 20 км 9/6 600 м
[Cb cap As op]
-2.2 -3.8 89 -4 -4 1015.3 973.8 -3.9
03 13.05 СЗ 2 10 км слаб. ливневой снег 10/10 600 м
[Cb cap]
+0.4 -2.1 83 -3 -3 1013.5 972.6
06 13.05 С 5 20 км {ливн. осадки} 8/8 600 м
[Cb cap]
+3.3 -4.8 55 -1 0 1012.1 971.6
09 13.05 ЮЗ 3 20 км в посл. час ливневой снег 8/6 600 м
[Cb cap Ci fib]
+5.1 -3.8 53 +2 +5 1011.8 971.6
12 13.05 С 3
{10}
20 км {ливн. осадки} 8/8 600 м
[Cb cap]
+4.2 -7.9 41 +1 +2 1012.2 971.8 +6.0 0.4
15 13.05 С 2 50 км 4/3 600 м
[Cb cap Ci fib]
+0.3 -7.1 58 -3 -3 1014.0 973.0
18 13.05 СЗ 1 50 км 10/10 600 м
[Cb cap]
-1.6 -6.6 69 -3 -3 1014.8 973.5
21 13.05 Ю 2 50 км 6/6 600 м
[Cb cap]
-2.9 -4.8 87 -7 -7 1015.4 973.8
00 14.05 ЮЗ 1 20 км 9/9 600 м
[Cb cap]
-2.3 -3.5 91 -5 -4 1016.0 974.5 -3.4
03 14.05 ЮЗ 2 20 км 9/9 600 м
[Cb cap]
+2.6 -3.3 65 -0 +1 1015.3 974.6
06 14.05 Ю 3 20 км в посл. час ливневой снег 5/5 600 м
[Cb cap]
+4.4 -2.0 63 +1 +7 1014.6 974.2
09 14.05 СЗ 6 20 км {ливн. осадки} 8/8 600 м
[Cb cap]
+3.5 -2.7 64 -2 -1 1014.2 973.6
12 14.05 СВ 2 20 км {ливн. осадки} 9/3 600 м
[Cb cap Ci fib]
+4.1 -2.5 62 +2 +3 1013.8 973.4 +6.4 0.0
15 14.05 ЮВ 1 50 км 10/6 600 м
[Cb cap As trans]
+1.1 -2.5 77 -1 -1 1013.6 972.8
18 14.05 штиль 0 50 км 10/1 600 м
[Cb cap Cs]
-1.9 -3.0 92 -3 -3 1013.2 972.0
21 14.05 штиль 0 50 км 10/0
[As op]
-3.5 -4.0 96 -5 -5 1012.4 970.9
00 15.05 штиль 0 20 км 8/0
[Cs]
-2.0 -3.0 93 -3 -1 1011.4 970.1 -4.2
03 15.05 СВ 2 20 км 8/8 600 м
[Cb cap]
+5.8 -5.7 43 +4 +6 1010.2 970.1
06 15.05 СВ 4 20 км 8/5 600 м
[Cb cap Ci sp]
+7.8 -6.9 34 +5 +10 1009.6 969.8
09 15.05 С 5 20 км 8/8 600 м
[Cb cap]
+6.3 -6.0 41 +3 +4 1010.5 970.5
12 15.05 СЗ 2
{11}
20 км 6/4 600 м
[Cb cap Ci sp]
+6.5 -7.4 36 +5 +6 1011.6 971.6 +8.4
15 15.05 СЗ 2 20 км 8/4 600 м
[Cb cap Ci sp]
+2.8 -3.3 64 0 0 1014.7 974.0
18 15.05 З 2 50 км 8/8 600 м
[Cb cap]
+1.1 -3.0 74 -2 -2 1015.6 974.7
21 15.05 Ю 2 50 км 8/3 600 м
[Cb cap Cs]
-0.7 -3.2 83 -4 -4 1016.8 975.5
00 16.05 ЮЗ 2 20 км 6/3 600 м
[Cb cap Ci fib]
+0.9 -2.5 78 -2 -1 1017.9 976.8 -1.3
03 16.05 ЮЗ 3 20 км 8/6 600 м
[Cb cap Ac trans]
+6.3 -2.7 53 +4 +6 1018.6 978.3
06 16.05 ЮЗ 4 20 км 8/8 600 м
[Cb cap Ci fib]
+9.6 -5.2 35 +7 +9 1017.9 978.0
09 16.05 З 4
{11}
20 км 8/8 600 м
[Cb cap]
+9.7 -7.5 29 +8 +9 1018.3 978.4
12 16.05 СЗ 4 20 км 8/5 600 м
[Cb cap Ci fib]
+8.7 -7.9 30 +6 +7 1018.9 978.9 +11.3
15 16.05 З 1
{11}
50 км 4/4 600 м
[Cb cap]
+5.7 -8.2 36 +5 +5 1020.0 979.5
18 16.05 Ю 2 50 км 8/5 600 м
[Cb cap Ci fib]
+2.3 -7.4 49 -0 -0 1021.0 980.0
21 16.05 Ю 1 50 км 8/8 600 м
[Cb cap]
+1.7 -6.9 53 +1 +1 1021.4 980.3
00 17.05 Ю 1 20 км 8/3 600 м
[Cb cap Cs]
+0.6 -5.9 62 -1 +1 1022.8 981.4 -1.0
03 17.05 ЮЗ 3 20 км 8/5 600 м
[Cb cap Ci fib]
+8.2 -6.2 35 +6 +10 1020.5 980.4
06 17.05 ЮЗ 4
{11}
20 км 8/6 600 м
[Cb cap Ci fib]
+9.7 -6.4 32 +8 +11 1019.9 980.0
09 17.05 ЮЗ 2
{13}
20 км 8/5 600 м
[Cb cap Cs]
+10.1 -6.3 31 +9 +13 1019.5 979.7
12 17.05 ЮЗ 4
{11}
20 км 9/8 600 м
[Cb cap Cs]
+9.0 -7.6 30 +7 +7 1020.2 980.1 +11.1
15 17.05 СВ 2 50 км 10/6 600 м
[Cb cap As trans]
+6.1 -7.3 38 +5 +5 1021.7 981.2
18 17.05 ЮВ 2 50 км 6/3 600 м
[Cb cap Ci fib]
+4.1 -6.0 48 +2 +2 1022.7 981.9
21 17.05 штиль 0 50 км 6/4 600 м
[Cb cap Ci fib]
+0.2 -6.2 62 -0 -0 1023.6 982.2
00 18.05 ЮВ 1 20 км 8/3 600 м
[Cb cap Cs]
+3.3 -3.7 60 +2 +4 1023.5 982.6 -2.2
03 18.05 СВ 4 20 км 10/4 600 м
[Cb cap Cs]
+9.8 -5.0 35 +8 +11 1022.2 982.2
06 18.05 ЮЗ 4 20 км 10/8 600 м
[Cb cap As op]
+10.4 -6.4 30 +9 +9 1020.4 980.6
09 18.05 ЮЗ 4 20 км 8/8 600 м
[Cb cap]
+12.6 -7.0 25 +11 +13 1017.9 978.5
12 18.05 ЮЗ 4 20 км 10/3 600 м
[Cb cap Cs]
+11.9 -6.9 26 +10 +11 1017.2 977.6 +13.0
15 18.05 ЮВ 3 50 км 8/3 600 м
[Cb cap Cs]
+9.2 -6.3 33 +8 +8 1016.4 976.6
18 18.05 ЮВ 3 50 км 8/8 600 м
[Cb cap]
+8.2 -6.4 35 +6 +6 1015.3 975.4
21 18.05 В 2 50 км 6/3 600 м
[Cb cap Cs]
+6.4 -6.7 39 +5 +5 1014.4 974.3
00 19.05 ЮВ 4 20 км 8/1 600 м
[Cb cap Cs]
+9.1 -5.9 34 +7 +8 1013.5 973.8 +6.4
03 19.05 Ю 4 20 км 8/0
[Ci]
+17.1 -5.9 20 +17 +22 1011.0 972.5

 

Местоположение метеостанции Кемчуг (Красноярский край, Россия): широта 56.10 долгота 91.67 высота над уровнем моря 332 м.

В архиве по умолчанию представлена погода в Кемчуге за последнюю неделю. Архивные данные за месяц целиком и за предыдущие месяцы, начиная с января 2011 года, Вы можете получить, выбрав интересующий диапазон дат из раскрывающегося списка и нажав кнопку "Ввод!".


*Определитесь, кто Вы:
робот инопланетянин человек

Внимание! Время в таблицах - всемирное. Для получения местного времени необходимо прибавить поправку, которая равна 7 ч.

Смотрите также архив погоды в соседних городах и на ближайших метеорологических станциях:

Погода в Каче (Красноярский край, Россия) (33 км)
Погода в Шумихе (Красноярский край, Россия) (43 км)
Погода в Емельяново (Красноярский край, Россия) (51 км)
Погода в Минино (Красноярский край, Россия) (66 км)
Погода в Роевом Ручье (Красноярский край, Россия) (67 км)
Погода в Красноярске (Красноярский край, Россия) (68 км)
Погода в Ачинске (Красноярский край, Россия) (74 км)
Погода в Балахте (Красноярский край, Россия) (80 км)
Погода в Назарово (Красноярский край, Россия) (84 км)
Погода в Погорельском Бору (Красноярский край, Россия) (85 км)

Пояснения к столбцам:

Ветер - указаны скорость ветра в м/с - средняя за 10 мин, порывы в срок и между сроками (в фигурных скобках) и направление, откуда дует ветер: С - северный, СВ - северо-восточный, В - восточный, ЮВ - юго-восточный, Ю - южный, ЮЗ - юго-западный, З - западный, СЗ - северо-западный.
Видимость - горизонтальная дальность видимости в метрах или километрах. При видимости от 1 до 10 км при отсутствии осадков обычно наблюдается дымка, при ухудшении видимости до 1 км и менее - туман. В сухую погоду видимость может ухудшаться дымом, пылью или мглою.
Явления - указаны атмосферные явления, наблюдавшиеся в срок или в последний час перед сроком; фигурными скобками обозначены явления, наблюдавшиеся между сроками (за 1-3 часа до срока); квадратными скобками обозначены град или гололедные отложения с указанием их диаметра в мм.
Облачность - указаны через наклонную черту общая и нижняя облачность в баллах и высота нижней границы облаков в метрах; квадратными скобками обозначены формы облаков: Ci - перистые, Cs - перисто-слоистые, Cc - перисто-кучевые, Ac - высококучевые, As - высокослоистые, Sc - слоисто-кучевые, Ns - слоисто-дождевые, Cu - кучевые, Cb - кучево-дождевые. Подробнее классификацию облаков см. в Атласе облаков (PDF).
T - Температура воздуха - температура, измеренная на высоте 2 м над землей.
Td - Температура точки росы - температура, при понижении до которой содержащийся в воздухе водяной пар достигнет насыщения.
f - Относительная влажность воздуха - влажноcть воздуха, измеренная на высоте 2 м над землей.
Te - Эффективная температура - температура, которую ощущает одетый по сезону человек в тени. Характеристика душности погоды. При расчете учитывается влияние влажности воздуха и скорости ветра на теплоощущения человека.
Tes - Эффективная температура на солнце - температура, которую ощущает человек, с поправкой на солнечный нагрев. Характеристика знойности погоды. Зависит от высоты солнца над горизонтом, облачности и скорости ветра. Ночью, в пасмурную погоду, а также при ветре 12 м/с и более поправка равна нулю.
P - Атмосферное давление - приведенное к уровню моря атмосферное давление.
Po - Атмосферное давление - измеренное на уровне метеостанции атмосферное давление.
Tmin - Минимальная температура - минимум температуры воздуха на высоте 2 м над землей.
Tmax - Максимальная температура - максимум температуры воздуха на высоте 2 м над землей.
R - Количество осадков - Количество выпавших осадков за период времени, мм. При наведении курсора мыши на число - период времени, за который выпало указанное количество осадков.
R24 - Количество осадков - Количество выпавших осадков за 24 часа, мм.
S - Снежный покров - Высота снежного покрова, см. При наведении курсора мыши на число - состояние снежного покрова и степень покрытия местности в баллах.